Time,TemperatureF,DewpointF,PressureIn,WindDirection,WindDirectionDegrees,WindSpeedMPH,WindSpeedGustMPH,Humidity,HourlyPrecipIn,Conditions,Clouds,dailyrainin,SoftwareType,DateUTC
2013-03-23 00:04:00,61.6,4.5,29.62,NNE,23,0.0,0.0,1,0.00,,,0.00,WUHU216HW,2013-03-23 04:04:00,
2013-03-23 00:34:00,61.0,4.2,29.61,NNE,23,0.0,0.0,1,0.00,,,0.00,WUHU216HW,2013-03-23 04:34:00,
2013-03-23 01:04:00,61.4,4.4,29.60,NNE,23,0.0,0.0,1,0.00,,,0.00,WUHU216HW,2013-03-23 05:04:00,
2013-03-23 01:34:00,61.9,4.9,29.59,NNE,23,0.0,0.0,1,0.02,,,0.00,WUHU216HW,2013-03-23 05:34:00,
2013-03-23 02:04:00,61.9,4.9,29.59,NNE,23,0.0,0.0,1,0.02,,,0.02,WUHU216HW,2013-03-23 06:04:00,
2013-03-23 02:34:00,62.3,5.1,29.58,NNE,23,0.0,0.0,1,0.00,,,0.02,WUHU216HW,2013-03-23 06:34:00,
2013-03-23 03:04:00,62.5,5.2,29.57,NNE,23,0.0,0.0,1,0.00,,,0.02,WUHU216HW,2013-03-23 07:04:00,
2013-03-23 03:34:00,62.3,5.1,29.56,NNE,23,0.0,0.0,1,0.00,,,0.02,WUHU216HW,2013-03-23 07:34:00,
2013-03-23 04:04:00,62.6,5.4,29.55,NNE,23,0.0,0.0,1,0.00,,,0.02,WUHU216HW,2013-03-23 08:04:00,
2013-03-23 04:34:00,62.3,5.1,29.54,NNE,23,0.0,0.0,1,0.00,,,0.02,WUHU216HW,2013-03-23 08:34:00,
2013-03-23 05:04:00,62.3,5.1,29.53,NNE,23,0.0,0.0,1,0.00,,,0.02,WUHU216HW,2013-03-23 09:04:00,
2013-03-23 05:34:00,63.4,6.0,29.53,NNE,23,0.0,0.0,1,0.00,,,0.02,WUHU216HW,2013-03-23 09:34:00,
2013-03-23 06:04:00,63.7,6.1,29.53,NNE,23,0.0,0.0,1,0.00,,,0.02,WUHU216HW,2013-03-23 10:04:00,
2013-03-23 06:34:00,64.3,6.6,29.54,NNE,23,0.0,0.0,1,0.00,,,0.02,WUHU216HW,2013-03-23 10:34:00,
2013-03-23 07:04:00,64.3,6.6,29.55,NNE,23,0.0,0.0,1,0.00,,,0.02,WUHU216HW,2013-03-23 11:04:00,
2013-03-23 07:34:00,64.8,6.9,29.56,NNE,23,0.0,0.0,1,0.02,,,0.02,WUHU216HW,2013-03-23 11:34:00,
2013-03-23 08:04:00,65.7,7.7,29.56,NNE,23,0.0,0.0,1,0.13,,,0.03,WUHU216HW,2013-03-23 12:04:00,
2013-03-23 08:34:00,66.1,7.9,29.56,SE,135,0.0,0.0,1,0.11,,,0.15,WUHU216HW,2013-03-23 12:34:00,
2013-03-23 09:04:00,67.9,9.4,29.55,SSW,203,0.0,0.0,1,0.02,,,0.16,WUHU216HW,2013-03-23 13:04:00,
2013-03-23 09:34:00,68.8,10.1,29.55,SSW,203,0.0,0.0,1,0.00,,,0.16,WUHU216HW,2013-03-23 13:34:00,
2013-03-23 10:04:00,70.6,11.3,29.54,SW,225,0.0,0.0,1,0.00,,,0.16,WUHU216HW,2013-03-23 14:04:00,
2013-03-23 10:34:00,72.5,13.0,29.53,South,180,0.0,0.0,1,0.00,,,0.16,WUHU216HW,2013-03-23 14:34:00,
2013-03-23 11:04:00,75.8,15.4,29.53,SE,135,0.4,0.4,1,0.00,,,0.16,WUHU216HW,2013-03-23 15:04:00,
2013-03-23 11:34:00,77.8,16.9,29.52,East,90,0.0,0.0,1,0.00,,,0.16,WUHU216HW,2013-03-23 15:34:00,
2013-03-23 12:04:00,78.8,17.6,29.51,SSW,203,4.9,4.9,1,0.00,,,0.16,WUHU216HW,2013-03-23 16:04:00,
2013-03-23 12:34:00,81.0,19.4,29.51,WSW,248,2.2,2.2,1,0.00,,,0.16,WUHU216HW,2013-03-23 16:34:00,
2013-03-23 13:04:00,80.8,19.3,29.50,WSW,248,0.7,0.7,1,0.00,,,0.16,WUHU216HW,2013-03-23 17:04:00,
2013-03-23 13:34:00,81.7,20.0,29.49,WSW,248,1.3,1.3,1,0.00,,,0.16,WUHU216HW,2013-03-23 17:34:00,
2013-03-23 14:04:00,82.1,20.3,29.47,WSW,248,0.4,0.4,1,0.00,,,0.16,WUHU216HW,2013-03-23 18:04:00,
2013-03-23 14:34:00,86.2,23.4,29.46,SW,225,2.9,2.9,1,0.00,,,0.16,WUHU216HW,2013-03-23 18:34:00,
2013-03-23 15:04:00,84.2,21.8,29.42,WSW,248,0.0,0.0,1,0.00,,,0.16,WUHU216HW,2013-03-23 19:04:00,
2013-03-23 15:34:00,77.2,16.5,29.42,North,0,0.2,0.2,1,0.09,,,0.16,WUHU216HW,2013-03-23 19:34:00,
2013-03-23 16:04:00,79.9,18.6,29.41,SSE,158,0.0,0.0,1,0.09,,,0.25,WUHU216HW,2013-03-23 20:04:00,
2013-03-23 16:34:00,83.3,21.2,29.40,WSW,248,3.4,3.4,1,0.00,,,0.25,WUHU216HW,2013-03-23 20:34:00,
2013-03-23 17:04:00,83.2,21.1,29.40,WSW,248,0.4,0.4,1,0.00,,,0.25,WUHU216HW,2013-03-23 21:04:00,
2013-03-23 17:34:00,82.3,20.3,29.40,West,270,0.0,0.0,1,0.00,,,0.25,WUHU216HW,2013-03-23 21:34:00,
2013-03-23 18:04:00,81.5,19.8,29.40,SSW,203,1.8,1.8,1,0.00,,,0.25,WUHU216HW,2013-03-23 22:04:00,
2013-03-23 18:34:00,81.7,20.0,29.41,SW,225,0.7,0.7,2,0.00,,,0.25,WUHU216HW,2013-03-23 22:34:00,
2013-03-23 19:04:00,80.1,18.6,29.43,SSW,203,0.0,0.0,1,0.00,,,0.25,WUHU216HW,2013-03-23 23:04:00,
2013-03-23 19:34:00,78.8,17.6,29.45,WSW,248,1.1,1.1,1,0.00,,,0.25,WUHU216HW,2013-03-23 23:34:00,
2013-03-23 20:04:00,72.9,13.2,29.46,NE,45,6.0,6.0,1,0.00,,,0.25,WUHU216HW,2013-03-24 00:04:00,
2013-03-23 20:34:00,69.7,10.7,29.46,ENE,68,2.9,2.9,1,0.00,,,0.25,WUHU216HW,2013-03-24 00:34:00,
2013-03-23 21:04:00,68.9,10.2,29.48,NE,45,0.0,0.0,1,0.00,,,0.25,WUHU216HW,2013-03-24 01:04:00,
2013-03-23 21:34:00,68.2,9.6,29.50,ENE,68,0.0,0.0,1,0.00,,,0.25,WUHU216HW,2013-03-24 01:34:00,
2013-03-23 22:04:00,67.7,9.3,29.51,NE,45,1.1,1.1,1,0.00,,,0.25,WUHU216HW,2013-03-24 02:04:00,
2013-03-23 22:34:00,67.3,9.0,29.51,ESE,113,0.0,0.0,1,0.00,,,0.25,WUHU216HW,2013-03-24 02:34:00,
2013-03-23 23:04:00,67.0,8.6,29.51,NNE,23,0.0,0.0,1,0.00,,,0.25,WUHU216HW,2013-03-24 03:04:00,
2013-03-23 23:34:00,67.1,8.8,29.50,SE,135,0.0,0.0,1,0.00,,,0.25,WUHU216HW,2013-03-24 03:34:00,